Location: Palam�s
(41.8500°N, 3.1330°E)
Time: 07:40:44
(UTC+02:00)

ISS - Visible Passes

Search period start: 28 June 2022 00:00
Search period end: 08 July 2022 00:00
Orbit: 414 x 420 km, 51.6° (Epoch: 28 June)

Date Brightness Start Highest point End Pass type
(mag) Time Alt. Az. Time Alt. Az. Time Alt. Az.
28 Jun -2.1 04:08:34 22° SE 04:08:54 22° SE 04:11:35 10° E visible
29 Jun -1.0 03:22:10 11° ESE 03:22:10 11° ESE 03:22:37 10° E visible
29 Jun -3.7 04:55:05 20° WSW 04:57:16 75° NW 05:00:39 10° NE visible
30 Jun -3.7 04:08:36 54° S 04:09:06 64° SE 04:12:27 10° ENE visible
01 Jul -2.2 03:22:04 28° E 03:22:04 28° E 03:24:06 10° ENE visible
01 Jul -2.3 04:54:57 12° W 04:57:45 33° NNW 05:00:51 10° NE visible
02 Jul -0.8 02:35:26 10° E 02:35:26 10° E 02:35:30 10° E visible
02 Jul -3.1 04:08:20 33° W 04:09:24 48° NNW 04:12:42 10° NE visible
03 Jul -3.3 03:21:38 59° NE 03:21:38 59° NE 03:24:28 10° NE visible
03 Jul -1.4 04:55:41 10° WNW 04:58:16 20° NNW 05:00:53 10° NE visible
04 Jul -1.5 02:34:52 21° ENE 02:34:52 21° ENE 02:36:09 10° ENE visible
04 Jul -1.8 04:07:45 15° WNW 04:09:47 25° NNW 04:12:40 10° NE visible
05 Jul -2.4 03:20:55 33° NW 03:21:19 34° NNW 03:24:26 10° NE visible
05 Jul -0.9 04:56:38 10° NW 04:58:48 16° N 05:00:59 10° NE visible
06 Jul -2.1 02:34:00 33° NNE 02:34:00 33° NNE 02:36:10 10° NE visible
06 Jul -1.0 04:07:50 10° NW 04:10:12 18° N 04:12:34 10° NE visible
06 Jul -0.9 05:45:35 10° NW 05:47:54 17° N 05:50:13 10° NE visible
07 Jul -1.2 01:47:00 16° NE 01:47:00 16° NE 01:47:49 10° NE visible
07 Jul -1.3 03:19:52 15° NW 03:21:35 21° NNW 03:24:13 10° NE visible
07 Jul -0.8 04:57:07 10° NW 04:59:15 16° N 05:01:24 10° NE visible
